KE9LZ Weather Reports


time (UTC)temp
C
wind
direction
speed
KPH
gust
KPH
rain 1hr
cm
rain 24hr
cm
rain mn
cm
humidity
%
barometer
mb
20260504024003 16 179 3.2 9.7 0.00 0.00 0.00 48 1006.4
20260504023003 16 186 3.2 9.7 0.00 0.00 0.00 48 1006.3
20260504021003 16 176 1.6 4.8 0.00 0.00 0.00 48 1006.3
20260504020003 16 186 1.6 9.7 0.00 0.00 0.00 48 1006.3
20260504015003 17 130 1.6 3.2 0.00 0.00 0.00 48 1006.3
20260504014003 17 161 1.6 9.7 0.00 0.00 0.00 46 1006.1
20260504013003 18 180 1.6 8.0 0.00 0.00 0.00 44 1006.1
20260504012003 18 237 3.2 8.0 0.00 0.00 0.00 43 1006.1
20260504011003 18 250 3.2 12.9 0.00 0.00 0.00 41 1005.9
20260504010003 19 263 8.0 16.1 0.00 0.00 0.00 40 1005.9
20260504005004 19 277 6.4 20.9 0.00 0.00 0.00 39 1005.8
20260504003004 20 283 9.7 22.5 0.00 0.00 0.00 37 1005.9
20260504002003 20 266 11.3 25.7 0.00 0.00 0.00 36 1005.7
20260504001003 21 287 8.0 16.1 0.00 0.00 0.00 37 1005.7
20260504000004 21 236 8.0 19.3 0.00 0.00 0.00 37 1005.5
20260503235003 21 219 11.3 20.9 0.00 0.00 0.00 38 1005.6
20260503234003 20 207 8.0 20.9 0.00 0.00 0.00 46 1005.6
20260503233003 20 194 11.3 25.7 0.00 0.00 0.00 45 1005.5
20260503232003 20 195 8.0 38.6 0.00 0.00 0.00 45 1005.7
20260503231004 20 205 14.5 25.7 0.00 0.00 0.00 44 1005.5
20260503230003 20 187 16.1 29.0 0.00 0.00 0.00 43 1005.8
20260503225003 20 206 16.1 29.0 0.00 0.00 0.00 43 1005.7
20260503224004 20 212 16.1 25.7 0.00 0.00 0.00 43 1006.0
20260503223003 20 197 16.1 29.0 0.00 0.00 0.00 43 1005.7
20260503222004 20 202 17.7 27.4 0.00 0.00 0.00 43 1005.9
20260503221004 21 198 11.3 32.2 0.00 0.00 0.00 42 1005.7
20260503220003 20 205 16.1 29.0 0.00 0.00 0.00 41 1006.0
20260503215003 20 206 12.9 24.1 0.00 0.00 0.00 43 1006.1
20260503214003 20 200 14.5 29.0 0.00 0.00 0.00 44 1006.3
20260503213004 20 188 14.5 27.4 0.00 0.00 0.00 44 1006.6
20260503212004 20 186 19.3 27.4 0.00 0.00 0.00 43 1006.5
20260503211003 20 199 20.9 32.2 0.00 0.00 0.00 43 1006.6
20260503210004 20 195 14.5 27.4 0.00 0.00 0.00 43 1006.7
20260503205003 20 220 19.3 35.4 0.00 0.00 0.00 43 1006.8
20260503204004 20 217 16.1 29.0 0.00 0.00 0.00 43 1007.1
20260503203003 20 203 12.9 38.6 0.00 0.00 0.00 44 1007.3
20260503202003 20 220 20.9 33.8 0.00 0.00 0.00 44 1007.4
20260503201003 19 178 16.1 29.0 0.00 0.00 0.00 44 1007.4
20260503200002 19 196 14.5 35.4 0.00 0.00 0.00 45 1008.0
20260503195003 19 201 17.7 33.8 0.00 0.00 0.00 45 1007.9
20260503193003 18 194 25.7 41.8 0.00 0.00 0.00 46 1008.4
20260503192004 19 203 17.7 38.6 0.00 0.00 0.00 46 1008.4
20260503191003 19 198 19.3 35.4 0.00 0.00 0.00 46 1008.7
20260503190003 18 204 16.1 46.7 0.00 0.00 0.00 48 1008.7
20260503185004 18 212 20.9 37.0 0.00 0.00 0.00 48 1008.8
20260503184003 18 211 19.3 38.6 0.00 0.00 0.00 49 1009.1
20260503183003 17 216 20.9 41.8 0.00 0.00 0.00 52 1009.3
20260503181003 17 209 22.5 46.7 0.00 0.00 0.00 55 1009.6
20260503180004 17 189 14.5 32.2 0.00 0.00 0.00 55 1009.7
20260503174003 17 195 20.9 40.2 0.00 0.00 0.00 55 1010.0
20260503173003 16 203 19.3 41.8 0.00 0.00 0.00 54 1010.4
20260503172003 16 214 16.1 40.2 0.00 0.00 0.00 54 1010.3
20260503171004 16 207 20.9 40.2 0.00 0.00 0.00 54 1010.6
20260503081003 9 180 8.0 12.9 0.00 0.00 0.00 63 1014.4
20260503071004 8 171 6.4 12.9 0.00 0.00 0.00 71 1014.6
20260503055003 6 175 4.8 9.7 0.00 0.00 0.00 73 1015.8
20260503054003 5 167 3.2 8.0 0.00 0.00 0.00 74 1015.5
20260503052003 5 178 4.8 8.0 0.00 0.00 0.00 74 1016.1
20260503051004 5 142 4.8 8.0 0.00 0.00 0.00 74 1015.8
20260503045003 5 136 4.8 8.0 0.00 0.00 0.00 73 1015.9
20260503044004 5 153 4.8 8.0 0.00 0.00 0.00 73 1016.1
20260503043003 5 130 4.8 8.0 0.00 0.00 0.00 72 1016.0
20260503042004 5 133 4.8 11.3 0.00 0.00 0.00 71 1016.3
20260503041004 5 159 4.8 11.3 0.00 0.00 0.00 70 1016.6
20260503040003 5 154 6.4 11.3 0.00 0.00 0.00 69 1016.7
20260503035004 6 164 6.4 9.7 0.00 0.00 0.00 68 1016.5
20260503034004 5 144 4.8 9.7 0.00 0.00 0.00 68 1016.8
20260503033003 6 120 6.4 11.3 0.00 0.00 0.00 68 1016.9
20260503032003 6 164 8.0 11.3 0.00 0.00 0.00 67 1016.9
20260503031004 6 169 6.4 14.5 0.00 0.00 0.00 66 1017.0
20260503030003 6 149 8.0 11.3 0.00 0.00 0.00 65 1017.1
20260503025004 6 135 4.8 12.9 0.00 0.00 0.00 64 1017.3